PAL7741 RKSI-RPLL

Flight info

Callsign PAL7741
Flight time N/A
Altitude 25000
Route BOPTA2A BOPTA Z51 BEDES Y711 MUGUS Y742 SALMI Q11 WAGON B591 JICHI Q11 POTIB M646 LAO B462 CAB CAB5R
Aircraft A35K/H-SDE2E3GHIJ3J4J5LM1ORWXY/LB1D1

Departure

Time 2026-05-04 14:22
Airport Incheon International Airport (RKSI)

Arrival

Time N/A
Airport Ninoy Aquino International Airport (RPLL)
Time Latitude Longitude Altitude Speed Heading
2026-05-04 14:01 37.45067 126.44470 38 ft 0 kts 117°
2026-05-04 14:12 37.45076 126.44449 37 ft 4 kts 117°
2026-05-04 14:13 37.45088 126.44419 36 ft 4 kts 117°
2026-05-04 14:13 37.45099 126.44392 39 ft 4 kts 123°
2026-05-04 14:13 37.45111 126.44373 36 ft 4 kts 163°
2026-05-04 14:13 37.45125 126.44372 35 ft 4 kts 211°
2026-05-04 14:14 37.45146 126.44391 36 ft 4 kts 220°
2026-05-04 14:14 37.45154 126.44399 37 ft 0 kts 219°
2026-05-04 14:15 37.45082 126.44308 39 ft 12 kts 233°
2026-05-04 14:16 37.45000 126.44147 39 ft 10 kts 236°
2026-05-04 14:16 37.44954 126.44093 39 ft 8 kts 204°
2026-05-04 14:17 37.44870 126.44127 39 ft 6 kts 148°
2026-05-04 14:17 37.44839 126.44153 37 ft 5 kts 146°
2026-05-04 14:17 37.44743 126.44236 39 ft 10 kts 146°
2026-05-04 14:18 37.44689 126.44281 39 ft 9 kts 146°
2026-05-04 14:18 37.44582 126.44348 39 ft 7 kts 182°
2026-05-04 14:19 37.44522 126.44277 39 ft 6 kts 233°
2026-05-04 14:19 37.44521 126.44275 39 ft 0 kts 233°
2026-05-04 14:20 37.44504 126.44246 39 ft 8 kts 234°
2026-05-04 14:20 37.44473 126.44189 39 ft 8 kts 238°
2026-05-04 14:21 37.44462 126.44084 39 ft 6 kts 292°
2026-05-04 14:21 37.44490 126.44048 39 ft 5 kts 322°
2026-05-04 14:21 37.44582 126.43963 39 ft 42 kts 325°
2026-05-04 14:21 37.45003 126.43581 38 ft 105 kts 323°
2026-05-04 14:22 37.45754 126.42909 40 ft 159 kts 325°
2026-05-04 14:22 37.46752 126.42035 281 ft 186 kts 324°
2026-05-04 14:22 37.47720 126.41046 1178 ft 171 kts 313°
2026-05-04 14:22 37.48526 126.39900 1753 ft 185 kts 307°
2026-05-04 14:23 37.50152 126.37049 2044 ft 215 kts 292°
2026-05-04 14:23 37.50480 126.35163 2204 ft 228 kts 274°
2026-05-04 14:23 37.50541 126.33106 2400 ft 242 kts 271°
2026-05-04 14:24 37.50567 126.30929 2585 ft 256 kts 271°
2026-05-04 14:24 37.50602 126.28624 2807 ft 270 kts 271°
2026-05-04 14:24 37.50648 126.26201 3019 ft 284 kts 271°
2026-05-04 14:24 37.50702 126.23686 3244 ft 297 kts 272°
2026-05-04 14:25 37.50696 126.21020 3442 ft 311 kts 264°
2026-05-04 14:25 37.48331 126.16388 3805 ft 341 kts 213°
2026-05-04 14:25 37.46093 126.15265 4062 ft 352 kts 198°
2026-05-04 14:26 37.43695 126.14503 4450 ft 358 kts 192°
2026-05-04 14:26 37.41196 126.14513 4858 ft 366 kts 169°
2026-05-04 14:26 37.38842 126.15755 5312 ft 371 kts 146°
2026-05-04 14:26 37.36993 126.18013 5791 ft 374 kts 128°
2026-05-04 14:27 37.35428 126.20636 6288 ft 376 kts 127°
2026-05-04 14:27 37.33828 126.23253 6729 ft 379 kts 129°
2026-05-04 14:27 37.32165 126.25829 7155 ft 382 kts 130°
2026-05-04 14:27 37.31612 126.26665 7294 ft 383 kts 130°
2026-05-04 14:29 37.20014 126.43337 10083 ft 398 kts 135°
2026-05-04 14:29 37.14287 126.46939 10964 ft 402 kts 161°
2026-05-04 14:30 37.11643 126.48086 11329 ft 404 kts 161°
2026-05-04 14:30 37.08993 126.49274 11697 ft 406 kts 160°
2026-05-04 14:30 37.03662 126.51685 12466 ft 409 kts 163°
2026-05-04 14:31 37.01853 126.52334 12712 ft 410 kts 165°
2026-05-04 14:31 36.96311 126.54140 13442 ft 413 kts 166°
2026-05-04 14:32 36.90733 126.55973 14143 ft 416 kts 166°
2026-05-04 14:32 36.87930 126.56894 14440 ft 418 kts 166°
2026-05-04 14:32 36.85108 126.57820 14746 ft 420 kts 166°
2026-05-04 14:32 36.82279 126.58748 14946 ft 419 kts 166°
2026-05-04 14:33 36.79472 126.59668 14987 ft 417 kts 165°
2026-05-04 14:33 36.76671 126.60586 14990 ft 417 kts 165°
2026-05-04 14:33 36.73860 126.61506 14987 ft 416 kts 165°
2026-05-04 14:33 36.71061 126.62432 14991 ft 416 kts 165°
2026-05-04 14:34 36.68239 126.63232 14991 ft 416 kts 172°
2026-05-04 14:34 36.65363 126.63395 14997 ft 415 kts 183°
2026-05-04 14:34 36.62489 126.63098 14998 ft 415 kts 187°
2026-05-04 14:34 36.59628 126.62608 14994 ft 414 kts 189°
2026-05-04 14:35 36.56786 126.62014 14998 ft 415 kts 190°
2026-05-04 14:35 36.53943 126.61378 15001 ft 415 kts 190°
2026-05-04 14:35 36.51108 126.60738 15003 ft 415 kts 190°
2026-05-04 14:35 36.48270 126.60108 15007 ft 415 kts 190°
2026-05-04 14:36 36.45424 126.59492 15009 ft 415 kts 189°
2026-05-04 14:36 36.42582 126.58888 15010 ft 415 kts 189°
2026-05-04 14:36 36.39734 126.58292 15009 ft 414 kts 189°
2026-05-04 14:36 36.36888 126.57700 15014 ft 414 kts 189°
2026-05-04 14:37 36.34048 126.57112 15013 ft 415 kts 189°
2026-05-04 14:37 36.31202 126.56523 15016 ft 415 kts 189°
2026-05-04 14:37 36.28356 126.55934 15018 ft 415 kts 189°
2026-05-04 14:37 36.25511 126.55344 15018 ft 415 kts 189°
2026-05-04 14:38 36.22663 126.54754 15024 ft 415 kts 189°
2026-05-04 14:38 36.19815 126.54163 15024 ft 415 kts 189°
2026-05-04 14:38 36.16968 126.53573 15029 ft 415 kts 189°
2026-05-04 14:38 36.14123 126.52984 15029 ft 415 kts 189°
2026-05-04 14:39 36.11280 126.52397 15032 ft 415 kts 189°
2026-05-04 14:39 36.08432 126.51809 15033 ft 415 kts 189°
2026-05-04 14:39 36.05588 126.51222 15036 ft 415 kts 189°
2026-05-04 14:40 35.99896 126.50049 15037 ft 415 kts 189°
2026-05-04 14:40 35.97049 126.49462 15038 ft 415 kts 189°
2026-05-04 14:40 35.94201 126.48876 15037 ft 415 kts 189°
2026-05-04 14:40 35.91356 126.48292 15038 ft 415 kts 189°
2026-05-04 14:41 35.88508 126.47707 15038 ft 415 kts 189°
2026-05-04 14:41 35.85697 126.47130 15037 ft 415 kts 189°
2026-05-04 14:41 35.80000 126.45961 15036 ft 415 kts 189°
2026-05-04 14:42 35.74303 126.44793 15035 ft 415 kts 189°
2026-05-04 14:42 35.71455 126.44210 15034 ft 415 kts 190°
2026-05-04 14:42 35.68603 126.43627 15035 ft 415 kts 190°
2026-05-04 14:43 35.65751 126.43045 15035 ft 415 kts 190°
2026-05-04 14:43 35.62905 126.42464 15036 ft 415 kts 190°
2026-05-04 14:43 35.60053 126.41882 15034 ft 415 kts 190°
2026-05-04 14:43 35.57200 126.41300 15037 ft 415 kts 190°
2026-05-04 14:44 35.54351 126.40719 15037 ft 415 kts 190°
2026-05-04 14:44 35.51499 126.40138 15038 ft 415 kts 190°
2026-05-04 14:44 35.48643 126.39557 15034 ft 415 kts 190°
2026-05-04 14:44 35.45793 126.38977 15036 ft 415 kts 190°
2026-05-04 14:45 35.42943 126.38398 15036 ft 415 kts 190°
2026-05-04 14:45 35.40098 126.37821 15035 ft 415 kts 191°
2026-05-04 14:45 35.38213 126.37438 15036 ft 415 kts 191°
2026-05-04 14:45 35.34401 126.36665 15040 ft 415 kts 191°
2026-05-04 14:46 35.31547 126.36087 15040 ft 415 kts 191°
2026-05-04 14:46 35.28700 126.35511 15039 ft 415 kts 191°
2026-05-04 14:46 35.25857 126.34936 15041 ft 415 kts 191°
2026-05-04 14:46 35.23010 126.34360 15044 ft 415 kts 191°
2026-05-04 14:47 35.20199 126.33793 15043 ft 415 kts 191°
2026-05-04 14:47 35.17347 126.33217 15045 ft 415 kts 191°
2026-05-04 14:47 35.14501 126.32643 15046 ft 415 kts 191°
2026-05-04 14:47 35.11650 126.32068 15046 ft 415 kts 191°
2026-05-04 14:48 35.08802 126.31494 15045 ft 415 kts 191°
2026-05-04 14:48 35.05953 126.30921 15046 ft 415 kts 191°
2026-05-04 14:48 35.03108 126.30348 15046 ft 415 kts 191°
2026-05-04 14:48 35.00264 126.29776 15046 ft 415 kts 191°
2026-05-04 14:49 34.97411 126.29203 15047 ft 415 kts 191°
2026-05-04 14:49 34.94562 126.28630 15047 ft 415 kts 191°
2026-05-04 14:49 34.91717 126.28059 15044 ft 415 kts 191°
2026-05-04 14:49 34.88867 126.27488 15046 ft 415 kts 191°
2026-05-04 14:50 34.86018 126.26918 15047 ft 415 kts 191°
2026-05-04 14:50 34.83173 126.26349 15046 ft 415 kts 191°
2026-05-04 14:50 34.80322 126.25779 15048 ft 415 kts 191°
2026-05-04 14:50 34.77741 126.25263 15047 ft 415 kts 191°
2026-05-04 14:51 34.74892 126.24694 15047 ft 415 kts 191°
2026-05-04 14:51 34.72045 126.24125 15048 ft 415 kts 191°
2026-05-04 14:51 34.69184 126.23554 15090 ft 419 kts 191°
2026-05-04 14:51 34.66295 126.22977 15373 ft 422 kts 191°
2026-05-04 14:52 34.63393 126.22399 15710 ft 423 kts 191°
2026-05-04 14:52 34.60485 126.21821 16028 ft 425 kts 191°
2026-05-04 14:52 34.57562 126.21239 16351 ft 427 kts 192°
2026-05-04 14:52 34.54623 126.20655 16672 ft 428 kts 192°
2026-05-04 14:53 34.51678 126.20070 17003 ft 430 kts 192°
2026-05-04 14:53 34.48717 126.19482 17323 ft 432 kts 192°
2026-05-04 14:53 34.45747 126.18893 17658 ft 434 kts 192°
2026-05-04 14:53 34.42830 126.18315 17989 ft 435 kts 192°
2026-05-04 14:54 34.39772 126.17710 18328 ft 437 kts 192°
2026-05-04 14:54 34.36765 126.17115 18632 ft 439 kts 192°
2026-05-04 14:54 34.33741 126.16518 18919 ft 440 kts 192°
2026-05-04 14:54 34.30713 126.15919 19208 ft 442 kts 192°
2026-05-04 14:55 34.27675 126.15318 19500 ft 443 kts 192°
2026-05-04 14:55 34.24667 126.14724 19777 ft 445 kts 192°
2026-05-04 14:55 34.21607 126.14120 20063 ft 447 kts 192°
2026-05-04 14:55 34.18537 126.13515 20357 ft 448 kts 192°
2026-05-04 14:56 34.15453 126.12908 20652 ft 450 kts 192°
2026-05-04 14:56 34.12356 126.12298 20947 ft 451 kts 192°
2026-05-04 14:56 34.09253 126.11688 21250 ft 453 kts 192°
2026-05-04 14:56 34.06137 126.11076 21552 ft 454 kts 192°
2026-05-04 14:57 34.03014 126.10463 21850 ft 456 kts 193°
2026-05-04 14:57 33.99878 126.09848 22147 ft 458 kts 193°
2026-05-04 14:57 33.96728 126.09230 22457 ft 459 kts 193°
2026-05-04 14:57 33.93568 126.08612 22758 ft 461 kts 193°
2026-05-04 14:58 33.90404 126.07992 23064 ft 462 kts 193°
2026-05-04 14:58 33.87224 126.07371 23359 ft 464 kts 193°
2026-05-04 14:58 33.84033 126.06747 23664 ft 465 kts 193°
2026-05-04 14:58 33.80835 126.06122 23924 ft 467 kts 193°
2026-05-04 14:59 33.77628 126.05496 24175 ft 468 kts 193°
2026-05-04 14:59 33.74405 126.04868 24429 ft 469 kts 193°
2026-05-04 14:59 33.67951 126.03611 24934 ft 471 kts 194°
2026-05-04 15:00 33.64713 126.02981 25129 ft 471 kts 194°
2026-05-04 15:00 33.61487 126.02356 25170 ft 467 kts 194°
2026-05-04 15:00 33.58281 126.01735 25172 ft 466 kts 194°
2026-05-04 15:01 33.51880 126.00493 25168 ft 466 kts 194°
2026-05-04 15:01 33.48685 125.99873 25171 ft 466 kts 194°
2026-05-04 15:01 33.45483 125.99252 25167 ft 465 kts 194°
2026-05-04 15:01 33.42289 125.98633 25169 ft 465 kts 194°
2026-05-04 15:02 33.39090 125.98015 25169 ft 465 kts 194°
2026-05-04 15:02 33.35902 125.97399 25178 ft 465 kts 194°
2026-05-04 15:02 33.32713 125.96783 25167 ft 464 kts 194°
2026-05-04 15:02 33.29521 125.96167 25162 ft 464 kts 194°
2026-05-04 15:03 33.26331 125.95551 25164 ft 464 kts 194°
2026-05-04 15:03 33.23144 125.94938 25169 ft 464 kts 194°
2026-05-04 15:03 33.19955 125.94324 25165 ft 464 kts 194°
2026-05-04 15:03 33.16767 125.93710 25168 ft 464 kts 194°
2026-05-04 15:04 33.13625 125.93106 25164 ft 464 kts 194°
2026-05-04 15:04 33.10442 125.92494 25165 ft 463 kts 194°
2026-05-04 15:04 33.07258 125.91883 25167 ft 463 kts 194°
2026-05-04 15:04 33.04082 125.91274 25168 ft 463 kts 194°
2026-05-04 15:05 33.00900 125.90664 25169 ft 462 kts 194°
2026-05-04 15:05 32.97726 125.90056 25169 ft 462 kts 194°
2026-05-04 15:05 32.94551 125.89448 25168 ft 462 kts 195°
2026-05-04 15:05 32.91377 125.88841 25168 ft 462 kts 195°
2026-05-04 15:06 32.88208 125.88235 25167 ft 462 kts 195°
2026-05-04 15:06 32.85032 125.87628 25165 ft 462 kts 195°
2026-05-04 15:06 32.81865 125.87023 25165 ft 461 kts 195°
2026-05-04 15:07 32.75526 125.85815 25165 ft 461 kts 195°
2026-05-04 15:07 32.72357 125.85211 25162 ft 461 kts 195°
2026-05-04 15:07 32.69191 125.84609 25168 ft 461 kts 195°
2026-05-04 15:07 32.66026 125.84007 25167 ft 461 kts 195°
2026-05-04 15:08 32.62863 125.83406 25168 ft 461 kts 195°
2026-05-04 15:08 32.59689 125.82803 25166 ft 461 kts 195°
2026-05-04 15:08 32.56524 125.82202 25168 ft 461 kts 195°
2026-05-04 15:08 32.53354 125.81601 25167 ft 461 kts 195°
2026-05-04 15:09 32.50187 125.81001 25166 ft 461 kts 195°
2026-05-04 15:09 32.47017 125.80401 25166 ft 461 kts 195°
2026-05-04 15:09 32.43850 125.79802 25168 ft 461 kts 195°
2026-05-04 15:10 32.37512 125.78604 25167 ft 461 kts 195°
2026-05-04 15:10 32.34341 125.78006 25170 ft 462 kts 195°
2026-05-04 15:10 32.28037 125.76817 25170 ft 462 kts 195°
2026-05-04 15:11 32.24824 125.76212 25170 ft 462 kts 195°
2026-05-04 15:11 32.21693 125.75623 25169 ft 462 kts 195°
2026-05-04 15:11 32.18521 125.75027 25168 ft 462 kts 195°
2026-05-04 15:11 32.15350 125.74431 25170 ft 461 kts 195°
2026-05-04 15:12 32.12178 125.73835 25167 ft 461 kts 195°
2026-05-04 15:12 32.09010 125.73240 25168 ft 461 kts 195°
2026-05-04 15:12 32.05836 125.72645 25169 ft 461 kts 195°
2026-05-04 15:12 32.02672 125.72052 25170 ft 461 kts 195°
2026-05-04 15:13 31.99506 125.71459 25167 ft 461 kts 195°
2026-05-04 15:13 31.96340 125.70866 25168 ft 460 kts 196°
2026-05-04 15:13 31.93180 125.70276 25169 ft 460 kts 196°
2026-05-04 15:13 31.90016 125.69685 25168 ft 460 kts 196°
2026-05-04 15:14 31.86858 125.69095 25166 ft 459 kts 196°
2026-05-04 15:14 31.83708 125.68507 25165 ft 459 kts 196°
2026-05-04 15:14 31.80551 125.67918 25168 ft 459 kts 196°
2026-05-04 15:14 31.77399 125.67330 25169 ft 458 kts 196°
2026-05-04 15:15 31.74258 125.66737 25167 ft 457 kts 197°
2026-05-04 15:15 31.71195 125.65852 25169 ft 450 kts 204°
2026-05-04 15:15 31.68213 125.64747 25172 ft 449 kts 205°
2026-05-04 15:16 31.62331 125.62340 25177 ft 447 kts 206°
2026-05-04 15:16 31.59404 125.61097 25176 ft 447 kts 207°
2026-05-04 15:16 31.53571 125.58623 25177 ft 446 kts 206°
2026-05-04 15:17 31.50640 125.57393 25178 ft 446 kts 206°
2026-05-04 15:17 31.44798 125.54938 25176 ft 446 kts 206°
2026-05-04 15:17 31.41875 125.53711 25174 ft 446 kts 206°
2026-05-04 15:18 31.38951 125.52485 25175 ft 446 kts 206°
2026-05-04 15:18 31.36027 125.51262 25172 ft 446 kts 206°
2026-05-04 15:18 31.33138 125.50054 25175 ft 446 kts 206°
2026-05-04 15:19 31.28239 125.48009 25178 ft 447 kts 206°
2026-05-04 15:19 31.24321 125.46376 25178 ft 447 kts 206°
2026-05-04 15:19 31.19450 125.44348 25180 ft 447 kts 206°
2026-05-04 15:20 31.16519 125.43128 25180 ft 447 kts 206°
2026-05-04 15:20 31.13584 125.41908 25181 ft 448 kts 206°
2026-05-04 15:20 31.10650 125.40688 25177 ft 448 kts 206°
2026-05-04 15:20 31.07715 125.39469 25178 ft 448 kts 206°
2026-05-04 15:21 31.04780 125.38251 25177 ft 448 kts 206°
2026-05-04 15:21 31.01843 125.37033 25171 ft 448 kts 206°
2026-05-04 15:21 30.95022 125.34206 25178 ft 448 kts 206°
2026-05-04 15:22 30.93039 125.33386 25177 ft 448 kts 206°
2026-05-04 15:22 30.90101 125.32171 25174 ft 448 kts 206°
2026-05-04 15:22 30.84233 125.29747 25182 ft 447 kts 206°
2026-05-04 15:23 30.81301 125.28537 25174 ft 447 kts 206°
2026-05-04 15:23 30.78370 125.27328 25175 ft 447 kts 206°
2026-05-04 15:23 30.75446 125.26122 25181 ft 446 kts 206°
2026-05-04 15:23 30.72555 125.24931 25175 ft 446 kts 206°
2026-05-04 15:24 30.66716 125.22528 25180 ft 445 kts 206°
2026-05-04 15:24 30.60874 125.20126 25177 ft 445 kts 206°
2026-05-04 15:25 30.57961 125.18929 25179 ft 445 kts 206°
2026-05-04 15:25 30.55041 125.17731 25174 ft 445 kts 206°
2026-05-04 15:25 30.52121 125.16533 25177 ft 445 kts 206°
2026-05-04 15:26 30.46286 125.14144 25176 ft 445 kts 206°
2026-05-04 15:26 30.43368 125.12953 25177 ft 445 kts 206°
2026-05-04 15:26 30.37541 125.10564 25177 ft 445 kts 206°
2026-05-04 15:27 30.34622 125.09367 25177 ft 445 kts 206°
2026-05-04 15:27 30.28782 125.06978 25179 ft 445 kts 206°
2026-05-04 15:28 30.22942 125.04596 25178 ft 445 kts 206°
2026-05-04 15:28 30.20018 125.03405 25177 ft 445 kts 206°
2026-05-04 15:28 30.14178 125.01028 25178 ft 445 kts 206°
2026-05-04 15:29 30.11253 124.99838 25176 ft 446 kts 206°
2026-05-04 15:30 29.99552 124.95085 25178 ft 446 kts 206°
2026-05-04 15:30 29.90821 124.91385 25177 ft 445 kts 207°
2026-05-04 15:31 29.85018 124.88877 25176 ft 445 kts 207°
2026-05-04 15:31 29.82118 124.87632 25176 ft 446 kts 207°
2026-05-04 15:32 29.73390 124.83910 25175 ft 446 kts 207°
2026-05-04 15:32 29.67603 124.81451 25179 ft 446 kts 207°
2026-05-04 15:33 29.61777 124.78978 25174 ft 446 kts 207°
2026-05-04 15:34 29.53033 124.75272 25174 ft 447 kts 207°
2026-05-04 15:34 29.50121 124.74039 25172 ft 447 kts 207°
2026-05-04 15:34 29.44288 124.71571 25171 ft 447 kts 207°
2026-05-04 15:35 29.38456 124.69108 25177 ft 447 kts 207°
2026-05-04 15:35 29.35538 124.67876 25175 ft 447 kts 207°
2026-05-04 15:35 29.32623 124.66646 25174 ft 447 kts 207°
2026-05-04 15:36 29.26788 124.64187 25171 ft 447 kts 207°
2026-05-04 15:36 29.23872 124.62959 25171 ft 447 kts 207°
2026-05-04 15:36 29.20955 124.61732 25173 ft 447 kts 207°
2026-05-04 15:37 29.18045 124.60507 25170 ft 447 kts 207°
2026-05-04 15:37 29.15113 124.59275 25173 ft 447 kts 207°
2026-05-04 15:37 29.12198 124.58051 25173 ft 447 kts 207°
2026-05-04 15:37 29.09277 124.56825 25173 ft 447 kts 207°
2026-05-04 15:38 29.06361 124.55602 25176 ft 447 kts 207°
2026-05-04 15:38 29.03441 124.54377 25176 ft 446 kts 207°
2026-05-04 15:38 29.00529 124.53157 25180 ft 446 kts 206°
2026-05-04 15:38 28.97614 124.51922 25171 ft 445 kts 208°
2026-05-04 15:39 28.94854 124.50393 25180 ft 438 kts 216°
2026-05-04 15:39 28.92307 124.48581 25178 ft 436 kts 218°
2026-05-04 15:39 28.87317 124.44673 25180 ft 435 kts 220°
2026-05-04 15:40 28.84856 124.42671 25182 ft 435 kts 220°
2026-05-04 15:40 28.82398 124.40667 25177 ft 435 kts 220°
2026-05-04 15:40 28.79938 124.38666 25170 ft 435 kts 220°
2026-05-04 15:40 28.77470 124.36670 25173 ft 435 kts 220°
2026-05-04 15:41 28.74998 124.34680 25174 ft 435 kts 220°
2026-05-04 15:41 28.72528 124.32697 25175 ft 435 kts 220°
2026-05-04 15:41 28.70052 124.30715 25170 ft 435 kts 220°
2026-05-04 15:41 28.67576 124.28735 25177 ft 435 kts 220°
2026-05-04 15:42 28.65096 124.26753 25171 ft 435 kts 220°
2026-05-04 15:42 28.62618 124.24773 25177 ft 435 kts 220°
2026-05-04 15:42 28.60140 124.22795 25172 ft 435 kts 220°
2026-05-04 15:42 28.57668 124.20822 25175 ft 435 kts 220°
2026-05-04 15:43 28.55187 124.18843 25171 ft 435 kts 220°
2026-05-04 15:43 28.52706 124.16865 25175 ft 435 kts 220°
2026-05-04 15:43 28.50230 124.14891 25175 ft 435 kts 220°
2026-05-04 15:43 28.47745 124.12913 25174 ft 435 kts 220°
2026-05-04 15:44 28.45265 124.10939 25175 ft 436 kts 220°
2026-05-04 15:44 28.42782 124.08963 25174 ft 436 kts 220°
2026-05-04 15:44 28.40300 124.06990 25172 ft 436 kts 220°
2026-05-04 15:44 28.37816 124.05017 25170 ft 436 kts 220°
2026-05-04 15:45 28.35331 124.03044 25173 ft 436 kts 220°
2026-05-04 15:45 28.32868 124.01128 25170 ft 438 kts 218°
2026-05-04 15:45 28.30137 123.99442 25175 ft 443 kts 212°
2026-05-04 15:45 28.27335 123.97963 25173 ft 444 kts 210°
2026-05-04 15:46 28.24505 123.96562 25171 ft 445 kts 209°
2026-05-04 15:46 28.21662 123.95204 25172 ft 446 kts 209°
2026-05-04 15:46 28.18800 123.93856 25172 ft 446 kts 209°
2026-05-04 15:46 28.15932 123.92507 25170 ft 446 kts 209°
2026-05-04 15:47 28.13068 123.91154 25173 ft 446 kts 209°
2026-05-04 15:47 28.10208 123.89798 25169 ft 446 kts 209°
2026-05-04 15:47 28.07347 123.88435 25170 ft 446 kts 209°
2026-05-04 15:47 28.04490 123.87073 25170 ft 446 kts 209°
2026-05-04 15:48 28.01637 123.85711 25168 ft 445 kts 209°
2026-05-04 15:48 27.98780 123.84347 25168 ft 445 kts 209°
2026-05-04 15:48 27.93070 123.81624 25173 ft 445 kts 209°
2026-05-04 15:49 27.90217 123.80265 25177 ft 445 kts 209°
2026-05-04 15:49 27.87363 123.78907 25167 ft 445 kts 209°
2026-05-04 15:49 27.84507 123.77549 25156 ft 445 kts 209°
2026-05-04 15:49 27.81654 123.76193 25166 ft 445 kts 209°
2026-05-04 15:50 27.78803 123.74838 25169 ft 445 kts 209°
2026-05-04 15:50 27.75945 123.73481 25166 ft 445 kts 209°
2026-05-04 15:50 27.73094 123.72128 25166 ft 445 kts 209°
2026-05-04 15:50 27.70241 123.70775 25167 ft 445 kts 209°
2026-05-04 15:51 27.67391 123.69423 25164 ft 445 kts 209°
2026-05-04 15:51 27.64536 123.68070 25167 ft 444 kts 209°
2026-05-04 15:51 27.61790 123.66525 25166 ft 438 kts 216°
2026-05-04 15:51 27.59232 123.64685 25167 ft 436 kts 219°
2026-05-04 15:52 27.56733 123.62753 25162 ft 435 kts 220°
2026-05-04 15:52 27.54271 123.60774 25163 ft 434 kts 221°
2026-05-04 15:52 27.51827 123.58775 25166 ft 434 kts 221°
2026-05-04 15:52 27.49388 123.56772 25163 ft 434 kts 221°
2026-05-04 15:53 27.46948 123.54773 25162 ft 434 kts 221°
2026-05-04 15:53 27.44502 123.52778 25159 ft 434 kts 221°
2026-05-04 15:53 27.42053 123.50789 25158 ft 434 kts 220°
2026-05-04 15:53 27.39602 123.48804 25166 ft 434 kts 220°
2026-05-04 15:54 27.37147 123.46819 25161 ft 434 kts 220°
2026-05-04 15:54 27.34692 123.44837 25159 ft 435 kts 220°
2026-05-04 15:54 27.32236 123.42856 25160 ft 435 kts 220°
2026-05-04 15:54 27.29779 123.40875 25159 ft 435 kts 220°
2026-05-04 15:55 27.27321 123.38894 25160 ft 435 kts 220°
2026-05-04 15:55 27.24862 123.36913 25159 ft 435 kts 220°
2026-05-04 15:55 27.22434 123.34958 25162 ft 435 kts 220°
2026-05-04 15:55 27.19973 123.32977 25161 ft 435 kts 220°
2026-05-04 15:56 27.18534 123.31820 25158 ft 435 kts 220°
2026-05-04 15:56 27.17892 123.31304 25153 ft 434 kts 219°
2026-05-04 15:56 27.16950 123.30562 25160 ft 432 kts 219°
2026-05-04 15:56 27.14492 123.28679 25162 ft 428 kts 218°
2026-05-04 15:57 27.12031 123.26817 25158 ft 424 kts 218°
2026-05-04 15:57 27.09601 123.24959 25161 ft 420 kts 219°
2026-05-04 15:57 27.07214 123.23103 25160 ft 416 kts 219°
2026-05-04 15:57 27.04853 123.21240 25161 ft 412 kts 219°
2026-05-04 15:58 27.02528 123.19388 25161 ft 409 kts 220°
2026-05-04 15:58 27.00225 123.17544 25161 ft 405 kts 220°
2026-05-04 15:58 26.97944 123.15715 25158 ft 402 kts 220°
2026-05-04 15:58 26.95681 123.13900 25159 ft 398 kts 220°
2026-05-04 15:59 26.93437 123.12101 25159 ft 395 kts 220°
2026-05-04 15:59 26.91191 123.10302 25157 ft 392 kts 220°
2026-05-04 15:59 26.89725 123.09128 25156 ft 390 kts 220°